Flag for Taiwan Weather past 2 weeks in Taipei, Taiwan

Now
82 °F

Broken clouds.


Feels Like: 82 °F
Forecast: 69 / 83 °F
Wind: 5 mph from Northwest

Location: Sungshan / Taipei

Current Time: Mar 30, 2015 at 2:44:03 PM

Latest Report: Mar 30, 2015 at 2:00 PM


Visibility: N/A

Pressure: 29.95 "Hg

Humidity: 42%

Dew point: 57 °F

Location of TaipeiLocation

Historic Weather in Taipei — Graph

°F

Taipei temperature yesterday

Maximum temperature yesterday: 82 °F (at 1:30 PM)
Minimum temperature yesterday: 57 °F (at 1:00 AM)
Average temperature yesterday: 71 °F

Past Weeks' High & Low Weather Summary

 TemperatureHumidityPressure
High88 °F (Mar 19, 10:30 AM)100% (Mar 17, 3:00 AM)30.39 "Hg (Mar 17, 3:00 AM)
Low55 °F (Mar 28, 5:00 AM)31% (Mar 19, 10:30 AM)29.77 "Hg (Mar 18, 2:30 PM)
Average69 °F75%30.08 "Hg
* Reported Mar 15 1:00 PM — Mar 30 1:30 PM, Taipei, Weather by CustomWeather, © 2015

Note: Actual official high and low records may vary slightly from our data, if they occured in-between our weather recording intervals... More about our weather records

Advertising

Taipei weather history for previous 24 hours

 ConditionsComfort  
Time TempWeatherWind HumidityBarometerVisibility
1:30 PM
Mon, Mar 30
82 °FBroken clouds.6 mph42%29.95 "HgN/A
1:00 PM82 °FBroken clouds.7 mph45%29.98 "HgN/A
12:30 PM82 °FBroken clouds.5 mph42%29.98 "HgN/A
12:00 PM82 °FBroken clouds.7 mph45%30.01 "HgN/A
11:30 AM82 °FBroken clouds.7 mph42%30.01 "HgN/A
10:30 AM81 °FBroken clouds.3 mph54%30.04 "HgN/A
10:00 AM79 °FPartly sunny.2 mph54%30.04 "HgN/A
9:30 AM77 °FPartly sunny.2 mph61%30.04 "HgN/A
9:00 AM75 °FPartly sunny.2 mph65%30.04 "HgN/A
8:30 AM73 °FPartly sunny.1 mph69%30.04 "HgN/A
8:00 AM73 °FPartly sunny.No wind69%30.04 "HgN/A
7:30 AM72 °FPartly sunny.1 mph73%30.01 "HgN/A
7:00 AM72 °FPartly sunny.2 mph73%30.01 "HgN/A
6:30 AM70 °FPartly sunny.3 mph73%30.01 "HgN/A
6:00 AM70 °FPartly sunny.2 mph78%29.98 "HgN/A
5:00 AM70 °FPassing clouds.1 mph78%29.98 "HgN/A
4:00 AM70 °FPassing clouds.No wind78%29.98 "HgN/A
3:00 AM68 °FPassing clouds.1 mph83%29.98 "HgN/A
2:00 AM66 °FPassing clouds.5 mph83%29.98 "HgN/A
1:00 AM70 °FPassing clouds.7 mph73%29.98 "HgN/A
12:00 AM72 °FPassing clouds.9 mph69%30.01 "HgN/A
11:30 PM
Sun, Mar 29
70 °FPassing clouds.9 mph73%30.01 "HgN/A
11:00 PM72 °FPassing clouds.10 mph69%30.01 "HgN/A
10:30 PM72 °FPassing clouds.9 mph69%30.01 "HgN/A
10:00 PM72 °FPassing clouds.9 mph69%30.01 "HgN/A
9:30 PM70 °FPassing clouds.9 mph73%30.01 "HgN/A
9:00 PM70 °FPassing clouds.10 mph73%30.01 "HgN/A
8:30 PM72 °FPassing clouds.12 mph69%30.01 "HgN/A
8:00 PM72 °FPassing clouds.12 mph69%30.01 "HgN/A
7:30 PM72 °FPassing clouds.12 mph69%30.01 "HgN/A
7:00 PM72 °FPassing clouds.10 mph69%29.98 "HgN/A
6:30 PM73 °FPassing clouds.12 mph65%29.98 "HgN/A
6:00 PM73 °FPassing clouds.12 mph65%29.98 "HgN/A
5:30 PM77 °FPassing clouds.13 mph54%29.95 "HgN/A
5:00 PM79 °FPassing clouds.12 mph51%29.95 "HgN/A
4:30 PM79 °FPassing clouds.12 mph51%29.95 "HgN/A
4:00 PM81 °FPassing clouds.12 mph48%29.95 "HgN/A
3:30 PM81 °FPassing clouds.13 mph48%29.95 "HgN/A
3:00 PM82 °FPassing clouds.14 mph45%29.95 "HgN/A
2:30 PM82 °FPassing clouds.14 mph45%29.95 "HgN/A
2:00 PM82 °FPassing clouds.14 mph45%29.95 "HgN/A
Weather by CustomWeather, © 2015

See weather overviewHow to use our weather pages